Weather History for Del Bajio, Mexico

Change the Weather History Date:

Saturday, February 8, 2014

  Actual Average Record
Temperature  
Mean Temperature 63 °F -  
Max Temperature 82 °F 76 °F 87 °F (2013)
Min Temperature 44 °F 44 °F 39 °F (1998)
Degree Days  
Heating Degree Days 2    
Growing Degree Days 13 (Base 50)    
Moisture  
Dew Point 32 °F    
Average Humidity 35    
Maximum Humidity 62    
Minimum Humidity 13    
Precipitation  
Precipitation 0.00 in - - ()
Sea Level Pressure  
Sea Level Pressure 30.12 in    
Wind  
Wind Speed 3 mph ()    
Max Wind Speed 9 mph    
Max Gust Speed -    
Visibility 8.6 miles    
Events      
Averages and records for this station are not official NWS values.
T = Trace of Precipitation, MM = Missing Value Source: Averaged Metar Reports

Daily Weather History Graph

Daily Weather History Graph

Search for Another Location

Airport:

Trip Planner

Search our weather history database for the weather conditions in past years. The results will help you decide how hot, cold, wet, or windy it might be!

Date:

Astronomy

Feb. 08, 2014 Rise Set
Actual Time 7:19 AM CST 6:40 PM CST
Civil Twilight 6:56 AM CST 7:03 PM CST
Nautical Twilight 6:30 AM CST 7:29 PM CST
Astronomical Twilight 6:04 AM CST 7:55 PM CST
Moon 1:47 PM CST (2/8) 2:24 AM CST (2/8)
Length of Visible Light 12h 06m
Length of Day
11h 20m
Waxing Gibbous, 69% of the Moon is Illuminated
Feb 8
Waxing Gibbous
Feb 14
Full
Feb 22
Last Quarter
Mar 1
New
Mar 8
First Quarter

Hourly Weather History & Observations

Time (CST) Temp. Windchill Dew Point Humidity Pressure Visibility Wind Dir Wind Speed Gust Speed Precip Events Conditions
12:50 AM 53.6 °F - 33.8 °F 47% 30.22 in 6.0 mi NE 6.9 mph - N/A   Clear
1:40 AM 50.0 °F - 32.0 °F 50% 30.21 in 6.0 mi Calm Calm - N/A   Clear
2:49 AM 51.8 °F - 32.0 °F 47% 29.83 in 6.0 mi NNW 6.9 mph - N/A   Clear
3:46 AM 50.0 °F - 32.0 °F 50% 30.20 in 7.0 mi Calm Calm - N/A   Clear
4:47 AM 44.6 °F - 32.0 °F 61% 30.21 in 8.0 mi Calm Calm - N/A   Clear
5:47 AM 46.4 °F 43.5 °F 33.8 °F 62% 29.91 in 8.0 mi ENE 5.8 mph - N/A   Clear
6:49 AM 48.2 °F - 33.8 °F 58% 30.24 in 8.0 mi Calm Calm - N/A   Scattered Clouds
7:55 AM 48.2 °F - 35.6 °F 62% 30.30 in 10.0 mi Calm Calm - N/A   Scattered Clouds
8:45 AM 57.2 °F - 37.4 °F 48% 29.99 in 10.0 mi ENE 3.5 mph - N/A   Scattered Clouds
9:40 AM 66.2 °F - 35.6 °F 32% 30.30 in 10.0 mi Calm Calm - N/A   Mostly Cloudy
10:57 AM 71.6 °F - 32.0 °F 23% 30.33 in 10.0 mi South 4.6 mph - N/A   Mostly Cloudy
11:53 AM 75.2 °F - 35.6 °F 24% 29.89 in 10.0 mi NE 3.5 mph - N/A   Mostly Cloudy
12:48 PM 80.6 °F - 33.8 °F 18% 30.27 in 10.0 mi SW 4.6 mph - N/A   Mostly Cloudy
1:47 PM 82.4 °F - 33.8 °F 17% 30.21 in 10.0 mi Calm Calm - N/A   Mostly Cloudy
2:47 PM 82.4 °F - 30.2 °F 15% 29.81 in 10.0 mi Calm Calm - N/A   Mostly Cloudy
3:44 PM 82.4 °F - 28.4 °F 14% 30.15 in 10.0 mi SW 6.9 mph - N/A   Mostly Cloudy
4:48 PM 82.4 °F - 26.6 °F 13% 30.15 in 10.0 mi Calm Calm - N/A   Mostly Cloudy
5:49 PM 78.8 °F - 24.8 °F 14% 29.86 in 10.0 mi WSW 6.9 mph - N/A   Mostly Cloudy
6:50 PM 71.6 °F - 26.6 °F 19% 30.17 in 10.0 mi Calm Calm - N/A   Mostly Cloudy
7:46 PM 66.2 °F - 28.4 °F 24% 30.19 in 7.0 mi Calm Calm - N/A   Scattered Clouds
8:47 PM 62.6 °F - 30.2 °F 30% 29.95 in 7.0 mi NNE 5.8 mph - N/A   Scattered Clouds
9:44 PM 60.8 °F - 32.0 °F 34% 30.24 in 8.0 mi NE 9.2 mph - N/A   Scattered Clouds
10:40 PM 55.4 °F - 32.0 °F 41% 30.27 in 8.0 mi East 4.6 mph - N/A   Scattered Clouds
11:42 PM 60.8 °F - 37.4 °F 42% 29.89 in 8.0 mi Calm Calm - N/A   Partly Cloudy